Regional Weather Roundup
Issued by NWS

Home | Current Version | Previous Version | Text Only | Print | Product List | Glossary On
Versions: 1 2 3 4 5 6 7 8 9 10 11 12 13 14 15 16 17 18 19 20 21 22 23 24 25 26 27 28 29 30 31 32 33 34 35 36 37 38 39 40 41 42 43 44 45 46 47 48 49 50
000
ASUS45 KBOU 230310
RWRCO

WEATHER ROUNDUP FOR COLORADO
NATIONAL WEATHER SERVICE DENVER/BOULDER CO
900 PM MDT TUE MAY 22 2018

NOTE: "FAIR" INDICATES FEW OR NO CLOUDS BELOW 12000 FEET WITH NO
SIGNIFICANT WEATHER AND/OR OBSTRUCTIONS TO VISIBILITY.

COZ001>005-013-030-031-230400-
...NORTHWEST COLORADO...

CITY           SKY/WX    TMP DP  RH WIND       PRES   REMARKS
CRAIG          FAIR      49  44  83 E7        30.07S
HAYDEN         FAIR      46  43  89 SE12      30.11R
MEEKER         FAIR      51  43  74 NE7       30.06R
RANGELY        FAIR      56  46  66 E10       29.99S
RABBIT EARS PA FOG       36  36 100 S3        30.26R VSB 1/4
STEAMBOAT SPGS FAIR      46  46  97 E5        30.11S
WALDEN         FAIR      45  39  81 S9        30.18R
$$

COZ006>008-011-230400-
...WEST CENTRAL VALLEYS...

CITY           SKY/WX    TMP DP  RH WIND       PRES   REMARKS
GRAND JUNCTION FAIR      57  46  66 SE8       29.94F
MONTROSE       FAIR      52  46  80 E5        30.02R
EAGLE          FAIR      56  40  55 S6        30.09R
RIFLE          FAIR      56  43  61 CALM      30.03R
DELTA          FAIR      56  49  77 CALM      29.98S
NUCLA          FAIR      61  36  39 NW8       30.00R
$$

COZ017>023-064>068-230400-
...SOUTHWEST COLORADO...

CITY           SKY/WX    TMP DP  RH WIND       PRES   REMARKS
DURANGO        FAIR      64  28  25 CALM      29.99R
CORTEZ         FAIR      57  31  37 CALM      29.94S
PAGOSA SPRINGS FAIR      59  22  24 NW6       30.06S THUNDER
TELLURIDE      CLOUDY    49  35  57 E8        30.16S
WOLF CREEK PAS FAIR      37  23  56 SW9G16    30.35S
$$

COZ009-010-012-014-032>034-037-058>063-230400-
...CENTRAL COLORADO...

CITY           SKY/WX    TMP DP  RH WIND       PRES   REMARKS
ASPEN          FAIR      46  38  73 CALM      30.12R
BUENA VISTA    FAIR      49  36  60 W5        30.11R
COPPER MTN     FOG       37  36  93 W8        30.34R VSB 1
BERTHOUD PASS  HAZE      32  21  64 NW12      30.36R VSB<1/4 WCI  23
COTTONWOOD PAS FAIR      54  32  43 W12G18    30.20R
GUNNISON       LGT RAIN  57  35  43 NE6       30.09R
GRANBY         MOCLDY    47  41  78 CALM      30.19R
KREMMLING      RAIN      54  46  76 NE7       30.16R
LEADVILLE      FAIR      43  34  70 N6        30.20R
MONARCH PASS   MOCLDY    41  27  56 MISG      30.43S
SALIDA         MOCLDY    62  36  37 NW7       30.14R
SUNLIGHT       FAIR      36  34  93 S3        30.29S
WILKERSON PASS FAIR      43  30  61 SW7       30.32R
$$

COZ069>075-230400-
...SAN LUIS VALLEY/SANGRE DE CRISTO MOUNTAINS...

CITY           SKY/WX    TMP DP  RH WIND       PRES   REMARKS
ALAMOSA        FAIR      58  37  45 S13G25    30.07R
DEL NORTE      FAIR      53  32  45 W7        30.09S
LA VETA PASS   FAIR      46  30  53 S9G17     30.35R
SAGUACHE       NOT AVBL
$$

COZ035-036-038>040-230400-
...NORTHERN COLORADO FRONT RANGE...

CITY           SKY/WX    TMP DP  RH WIND       PRES   REMARKS
DENVER INTL AP MOCLDY    62  47  57 NW16      29.95R
AURORA         MOCLDY    61  46  59 NW15      29.97R
FRONT RANGE AP MOCLDY    62  50  63 NW13      29.96R
ERIE MUNI ARPT FAIR      56  49  79 N3        29.99R
BOULDER MUN AP FAIR      57  52  82 SW6       29.94R
CENTENNIAL     FAIR      61  49  64 N10       29.98R
BROOMFIELD     MOCLDY    61  46  59 NW12      29.98R
FORT COLLINS   CLOUDY    57  53  86 E7        29.96R
LONGMONT       FAIR      60  51  73 N6        29.96R
$$

COZ041-046-047-076>085-087-088-230400-
...PIKES PEAK/PALMER DIVIDE AND SOUTHERN FOOTHILLS...

CITY           SKY/WX    TMP DP  RH WIND       PRES   REMARKS
COLO. SPRINGS  FAIR      65  44  46 E12       29.98R
A. F. ACADEMY  CLOUDY    65  39  38 S7        30.00R
SCHRIEVER AFB  NOT AVBL
CHEYENNE MTN   FAIR      63  39  41 SW10G20   29.98R
ELLICOTT         N/A    N/A N/A N/A SE16      29.96R
FALCON         FAIR      59  43  54 E9        30.03R
FORT CARSON    FAIR      65  43  44 SE8       29.94R
LIMON          FAIR      65  49  56 SE21G31   29.94R
MONUMENT HILL  FAIR      59  36  41 SE15      30.05R
CANON CITY     FAIR      72  41  33 W6        29.89R
WALSENBURG     FAIR      66  41  39 S20G26    29.96R
TRINIDAD       MOCLDY    59  45  59 SE12G38   30.01R
$$

COZ042>045-048>051-090-091-230400-
...NORTHEAST COLORADO...

CITY           SKY/WX    TMP DP  RH WIND       PRES   REMARKS
GREELEY ARPT   FAIR      61  52  72 N22G28    29.92R
AKRON          FAIR      68  45  43 SE16      29.88R
BURLINGTON     LGT RAIN  71  53  52 S28G41    29.92F
WRAY           FAIR      70  50  49 SE15G22   29.86F
YUMA           FAIR      68  27  21 SE13      29.86S
STERLING       FAIR      70  52  52 SE12G17   29.84S
HOLYOKE        FAIR      70  54  56 SE13      29.89R
FORT MORGAN    MOCLDY    69  46  42 SE6       29.87R
$$

COZ086-089-092>099-230400-
...SOUTHEAST COLORADO...

CITY           SKY/WX    TMP DP  RH WIND       PRES   REMARKS
PUEBLO         FAIR      72  46  39 SE16      29.86R
LA JUNTA       FAIR      75  44  33 S15G25    29.91R
LAMAR          FAIR      74  50  42 S12       29.90R
SPRINGFIELD      N/A     68  52  56 S12       29.98R
$$



USA.gov is the U.S. government's official web portal to all federal, state and local government web resources and services.